Year,Month,Day,Hour,Minute,Value (Times are PST for temperature in C)
2006,03,12,00,00,4.80
2006,03,12,00,01,4.90
2006,03,12,00,02,4.90
2006,03,12,00,03,4.90
2006,03,12,00,04,4.90
2006,03,12,00,05,4.80
2006,03,12,00,06,4.80
2006,03,12,00,07,4.80
2006,03,12,00,08,4.80
2006,03,12,00,09,4.80
2006,03,12,00,10,4.70
2006,03,12,00,11,4.70
2006,03,12,00,12,4.70
2006,03,12,00,13,4.70
2006,03,12,00,14,4.60
2006,03,12,00,15,4.60
2006,03,12,00,16,4.60
2006,03,12,00,17,4.60
2006,03,12,00,18,4.60
2006,03,12,00,19,4.60
2006,03,12,00,20,4.60
2006,03,12,00,21,4.50
2006,03,12,00,22,4.50
2006,03,12,00,23,4.50
2006,03,12,00,24,4.50
2006,03,12,00,25,4.50
2006,03,12,00,26,4.50
2006,03,12,00,27,4.50
2006,03,12,00,28,4.50
2006,03,12,00,29,4.50
2006,03,12,00,30,4.40
2006,03,12,00,31,4.40
2006,03,12,00,32,4.40
2006,03,12,00,33,4.40
2006,03,12,00,34,4.40
2006,03,12,00,35,4.40
2006,03,12,00,36,4.40
2006,03,12,00,37,4.30
2006,03,12,00,38,4.30
2006,03,12,00,39,4.30
2006,03,12,00,40,4.30
2006,03,12,00,41,4.30
2006,03,12,00,42,4.30
2006,03,12,00,43,4.30
2006,03,12,00,44,4.20
2006,03,12,00,45,4.20
2006,03,12,00,46,4.20
2006,03,12,00,47,4.20
2006,03,12,00,48,4.20
2006,03,12,00,49,4.20
2006,03,12,00,50,4.20
2006,03,12,00,51,4.20
2006,03,12,00,52,4.20
2006,03,12,00,53,4.20
2006,03,12,00,54,4.20
2006,03,12,00,55,4.20
2006,03,12,00,56,4.20
2006,03,12,00,57,4.20
2006,03,12,00,58,4.20
2006,03,12,00,59,4.20
2006,03,12,01,00,4.20
2006,03,12,01,01,4.20
2006,03,12,01,02,4.10
2006,03,12,01,03,4.10
2006,03,12,01,04,4.00
2006,03,12,01,05,4.00
2006,03,12,01,06,4.00
2006,03,12,01,07,4.00
2006,03,12,01,08,4.00
2006,03,12,01,09,4.00
2006,03,12,01,10,4.00
2006,03,12,01,11,4.00
2006,03,12,01,12,3.90
2006,03,12,01,13,3.90
2006,03,12,01,14,3.90
2006,03,12,01,15,3.90
2006,03,12,01,16,3.90
2006,03,12,01,17,3.90
2006,03,12,01,18,3.90
2006,03,12,01,19,3.90
2006,03,12,01,20,3.90
2006,03,12,01,21,3.90
2006,03,12,01,22,3.90
2006,03,12,01,23,3.90
2006,03,12,01,24,3.90
2006,03,12,01,25,3.90
2006,03,12,01,26,3.90
2006,03,12,01,27,3.80
2006,03,12,01,28,3.80
2006,03,12,01,29,3.80
2006,03,12,01,30,3.90
2006,03,12,01,31,3.90
2006,03,12,01,32,3.90
2006,03,12,01,33,3.90
2006,03,12,01,34,3.90
2006,03,12,01,35,3.90
2006,03,12,01,36,3.90
2006,03,12,01,37,4.00
2006,03,12,01,38,4.00
2006,03,12,01,39,4.00
2006,03,12,01,40,4.00
2006,03,12,01,41,4.00
2006,03,12,01,42,4.00
2006,03,12,01,43,4.00
2006,03,12,01,44,4.10
2006,03,12,01,45,4.10
2006,03,12,01,46,4.10
2006,03,12,01,47,4.10
2006,03,12,01,48,4.20
2006,03,12,01,49,4.10
2006,03,12,01,50,4.10
2006,03,12,01,51,4.10
2006,03,12,01,52,4.10
2006,03,12,01,53,4.10
2006,03,12,01,54,4.10
2006,03,12,01,55,4.10
2006,03,12,01,56,4.10
2006,03,12,01,57,4.10
2006,03,12,01,58,4.00
2006,03,12,01,59,4.00
2006,03,12,02,00,4.00
2006,03,12,02,01,4.00
2006,03,12,02,02,4.00
2006,03,12,02,03,4.00
2006,03,12,02,04,3.90
2006,03,12,02,05,3.90
2006,03,12,02,06,3.90
2006,03,12,02,07,3.80
2006,03,12,02,08,3.80
2006,03,12,02,09,3.80
2006,03,12,02,10,3.80
2006,03,12,02,11,3.80
2006,03,12,02,12,3.80
2006,03,12,02,13,3.80
2006,03,12,02,14,3.80
2006,03,12,02,15,3.80
2006,03,12,02,16,3.80
2006,03,12,02,17,3.80
2006,03,12,02,18,3.80
2006,03,12,02,19,3.80
2006,03,12,02,20,3.80
2006,03,12,02,21,3.70
2006,03,12,02,22,3.70
2006,03,12,02,23,3.70
2006,03,12,02,24,3.70
2006,03,12,02,25,3.70
2006,03,12,02,26,3.60
2006,03,12,02,27,3.60
2006,03,12,02,28,3.60
2006,03,12,02,29,3.60
2006,03,12,02,30,3.60
2006,03,12,02,31,3.60
2006,03,12,02,32,3.60
2006,03,12,02,33,3.60
2006,03,12,02,34,3.60
2006,03,12,02,35,3.60
2006,03,12,02,36,3.60
2006,03,12,02,37,3.60
2006,03,12,02,38,3.60
2006,03,12,02,39,3.60
2006,03,12,02,40,3.60
2006,03,12,02,41,3.70
2006,03,12,02,42,3.70
2006,03,12,02,43,3.70
2006,03,12,02,44,3.70
2006,03,12,02,45,3.70
2006,03,12,02,46,3.70
2006,03,12,02,47,3.80
2006,03,12,02,48,3.80
2006,03,12,02,49,3.80
2006,03,12,02,50,3.80
2006,03,12,02,51,3.80
2006,03,12,02,52,3.70
2006,03,12,02,53,3.70
2006,03,12,02,54,3.70
2006,03,12,02,55,3.70
2006,03,12,02,56,3.60
2006,03,12,02,57,3.60
2006,03,12,02,58,3.60
2006,03,12,02,59,3.60
2006,03,12,03,00,3.70
2006,03,12,03,01,3.70
2006,03,12,03,02,3.70
2006,03,12,03,03,3.70
2006,03,12,03,04,3.70
2006,03,12,03,05,3.70
2006,03,12,03,06,3.70
2006,03,12,03,07,3.80
2006,03,12,03,08,3.80
2006,03,12,03,09,3.80
2006,03,12,03,10,3.80
2006,03,12,03,11,3.80
2006,03,12,03,12,3.80
2006,03,12,03,13,3.80
2006,03,12,03,14,3.80
2006,03,12,03,15,3.80
2006,03,12,03,16,3.80
2006,03,12,03,17,3.70
2006,03,12,03,18,3.70
2006,03,12,03,19,3.70
2006,03,12,03,20,3.60
2006,03,12,03,21,3.60
2006,03,12,03,22,3.60
2006,03,12,03,23,3.50
2006,03,12,03,24,3.50
2006,03,12,03,25,3.50
2006,03,12,03,26,3.50
2006,03,12,03,27,3.50
2006,03,12,03,28,3.50
2006,03,12,03,29,3.50
2006,03,12,03,30,3.50
2006,03,12,03,31,3.50
2006,03,12,03,32,3.50
2006,03,12,03,33,3.50
2006,03,12,03,34,3.50
2006,03,12,03,35,3.50
2006,03,12,03,36,3.50
2006,03,12,03,37,3.50
2006,03,12,03,38,3.50
2006,03,12,03,39,3.50
2006,03,12,03,40,3.50
2006,03,12,03,41,3.50
2006,03,12,03,42,3.50
2006,03,12,03,43,3.50
2006,03,12,03,44,3.50
2006,03,12,03,45,3.50
2006,03,12,03,46,3.40
2006,03,12,03,47,3.40
2006,03,12,03,48,3.40
2006,03,12,03,49,3.30
2006,03,12,03,50,3.30
2006,03,12,03,51,3.30
2006,03,12,03,52,3.30
2006,03,12,03,53,3.30
2006,03,12,03,54,3.30
2006,03,12,03,55,3.30
2006,03,12,03,56,3.20
2006,03,12,03,57,3.10
2006,03,12,03,58,3.10
2006,03,12,03,59,3.10
2006,03,12,04,00,3.00
2006,03,12,04,01,2.90
2006,03,12,04,02,2.90
2006,03,12,04,03,2.90
2006,03,12,04,04,2.90
2006,03,12,04,05,2.90
2006,03,12,04,06,2.90
2006,03,12,04,07,2.90
2006,03,12,04,08,2.90
2006,03,12,04,09,2.80
2006,03,12,04,10,2.80
2006,03,12,04,11,2.80
2006,03,12,04,12,2.80
2006,03,12,04,13,2.80
2006,03,12,04,14,2.70
2006,03,12,04,15,2.70
2006,03,12,04,16,2.70
2006,03,12,04,17,2.70
2006,03,12,04,18,2.70
2006,03,12,04,19,2.70
2006,03,12,04,20,2.70
2006,03,12,04,21,2.70
2006,03,12,04,22,2.70
2006,03,12,04,23,2.60
2006,03,12,04,24,2.60
2006,03,12,04,25,2.60
2006,03,12,04,26,2.50
2006,03,12,04,27,2.50
2006,03,12,04,28,2.50
2006,03,12,04,29,2.50
2006,03,12,04,30,2.40
2006,03,12,04,31,2.40
2006,03,12,04,32,2.40
2006,03,12,04,33,2.40
2006,03,12,04,34,2.40
2006,03,12,04,35,2.40
2006,03,12,04,36,2.40
2006,03,12,04,37,2.40
2006,03,12,04,38,2.40
2006,03,12,04,39,2.40
2006,03,12,04,40,2.40
2006,03,12,04,41,2.40
2006,03,12,04,42,2.40
2006,03,12,04,43,2.50
2006,03,12,04,44,2.50
2006,03,12,04,45,2.50
2006,03,12,04,46,2.50
2006,03,12,04,47,2.50
2006,03,12,04,48,2.50
2006,03,12,04,49,2.50
2006,03,12,04,50,2.50
2006,03,12,04,51,2.50
2006,03,12,04,52,2.50
2006,03,12,04,53,2.50
2006,03,12,04,54,2.50
2006,03,12,04,55,2.50
2006,03,12,04,56,2.50
2006,03,12,04,57,2.50
2006,03,12,04,58,2.50
2006,03,12,04,59,2.50
2006,03,12,05,00,2.50
2006,03,12,05,01,2.50
2006,03,12,05,02,2.50
2006,03,12,05,03,2.50
2006,03,12,05,04,2.50
2006,03,12,05,05,2.50
2006,03,12,05,06,2.50
2006,03,12,05,07,2.50
2006,03,12,05,08,2.40
2006,03,12,05,09,2.40
2006,03,12,05,10,2.40
2006,03,12,05,11,2.40
2006,03,12,05,12,2.30
2006,03,12,05,13,2.30
2006,03,12,05,14,2.30
2006,03,12,05,15,2.30
2006,03,12,05,16,2.30
2006,03,12,05,17,2.20
2006,03,12,05,18,2.20
2006,03,12,05,19,2.20
2006,03,12,05,20,2.20
2006,03,12,05,21,2.20
2006,03,12,05,22,2.20
2006,03,12,05,23,2.20
2006,03,12,05,24,2.20
2006,03,12,05,25,2.20
2006,03,12,05,26,2.20
2006,03,12,05,27,2.20
2006,03,12,05,28,2.20
2006,03,12,05,29,2.20
2006,03,12,05,30,2.20
2006,03,12,05,31,2.10
2006,03,12,05,32,2.10
2006,03,12,05,33,2.10
2006,03,12,05,34,2.10
2006,03,12,05,35,2.10
2006,03,12,05,36,2.10
2006,03,12,05,37,2.10
2006,03,12,05,38,2.00
2006,03,12,05,39,2.00
2006,03,12,05,40,2.00
2006,03,12,05,41,2.00
2006,03,12,05,42,1.90
2006,03,12,05,43,1.90
2006,03,12,05,44,1.90
2006,03,12,05,45,2.00
2006,03,12,05,46,2.00
2006,03,12,05,47,2.00
2006,03,12,05,48,2.00
2006,03,12,05,49,2.00
2006,03,12,05,50,2.00
2006,03,12,05,51,2.00
2006,03,12,05,52,2.00
2006,03,12,05,53,2.00
2006,03,12,05,54,2.00
2006,03,12,05,55,2.00
2006,03,12,05,56,2.00
2006,03,12,05,57,2.00
2006,03,12,05,58,2.00
2006,03,12,05,59,2.00
2006,03,12,06,00,2.00
2006,03,12,06,01,2.10
2006,03,12,06,02,2.10
2006,03,12,06,03,2.10
2006,03,12,06,04,2.10
2006,03,12,06,05,2.10
2006,03,12,06,06,2.10
2006,03,12,06,07,2.10
2006,03,12,06,08,2.10
2006,03,12,06,09,2.10
2006,03,12,06,10,2.10
2006,03,12,06,11,2.10
2006,03,12,06,12,2.00
2006,03,12,06,13,2.00
2006,03,12,06,14,2.00
2006,03,12,06,15,2.00
2006,03,12,06,16,2.00
2006,03,12,06,17,2.00
2006,03,12,06,18,2.00
2006,03,12,06,19,2.00
2006,03,12,06,20,2.00
2006,03,12,06,21,2.00
2006,03,12,06,22,2.00
2006,03,12,06,23,2.10
2006,03,12,06,24,2.00
2006,03,12,06,25,2.00
2006,03,12,06,26,2.00
2006,03,12,06,27,2.00
2006,03,12,06,28,2.00
2006,03,12,06,29,2.00
2006,03,12,06,30,2.00
2006,03,12,06,31,2.00
2006,03,12,06,32,2.00
2006,03,12,06,33,1.90
2006,03,12,06,34,1.90
2006,03,12,06,35,1.90
2006,03,12,06,36,1.80
2006,03,12,06,37,1.80
2006,03,12,06,38,1.80
2006,03,12,06,39,1.80
2006,03,12,06,40,1.70
2006,03,12,06,41,1.70
2006,03,12,06,42,1.70
2006,03,12,06,43,1.60
2006,03,12,06,44,1.60
2006,03,12,06,45,1.50
2006,03,12,06,46,1.50
2006,03,12,06,47,1.40
2006,03,12,06,48,1.40
2006,03,12,06,49,1.30
2006,03,12,06,50,1.30
2006,03,12,06,51,1.30
2006,03,12,06,52,1.30
2006,03,12,06,53,1.20
2006,03,12,06,54,1.20
2006,03,12,06,55,1.20
2006,03,12,06,56,1.10
2006,03,12,06,57,1.10
2006,03,12,06,58,1.10
2006,03,12,06,59,1.10
2006,03,12,07,00,1.10
2006,03,12,07,01,1.10
2006,03,12,07,02,1.00
2006,03,12,07,03,1.00
2006,03,12,07,04,0.90
2006,03,12,07,05,0.90
2006,03,12,07,06,0.90
2006,03,12,07,07,0.80
2006,03,12,07,08,0.80
2006,03,12,07,09,0.80
2006,03,12,07,10,0.80
2006,03,12,07,11,0.80
2006,03,12,07,12,0.80
2006,03,12,07,13,0.80
2006,03,12,07,14,0.80
2006,03,12,07,15,0.80
2006,03,12,07,16,0.80
2006,03,12,07,17,0.80
2006,03,12,07,18,0.80
2006,03,12,07,19,0.80
2006,03,12,07,20,0.80
2006,03,12,07,21,0.80
2006,03,12,07,22,0.90
2006,03,12,07,23,0.90
2006,03,12,07,24,0.90
2006,03,12,07,25,0.90
2006,03,12,07,26,1.00
2006,03,12,07,27,1.00
2006,03,12,07,28,1.00
2006,03,12,07,29,1.00
2006,03,12,07,30,1.10
2006,03,12,07,31,1.10
2006,03,12,07,32,1.10
2006,03,12,07,33,1.10
2006,03,12,07,34,1.20
2006,03,12,07,35,1.20
2006,03,12,07,36,1.30
2006,03,12,07,37,1.30
2006,03,12,07,38,1.30
2006,03,12,07,39,1.30
2006,03,12,07,40,1.40
2006,03,12,07,41,1.40
2006,03,12,07,42,1.40
2006,03,12,07,43,1.50
2006,03,12,07,44,1.50
2006,03,12,07,45,1.50
2006,03,12,07,46,1.60
2006,03,12,07,47,1.60
2006,03,12,07,48,1.70
2006,03,12,07,49,1.70
2006,03,12,07,50,1.80
2006,03,12,07,51,1.80
2006,03,12,07,52,1.80
2006,03,12,07,53,1.90
2006,03,12,07,54,2.00
2006,03,12,07,55,2.00
2006,03,12,07,56,2.10
2006,03,12,07,57,2.20
2006,03,12,07,58,2.20
2006,03,12,07,59,2.30
2006,03,12,08,00,2.40
2006,03,12,08,01,2.40
2006,03,12,08,02,2.50
2006,03,12,08,03,2.60
2006,03,12,08,04,2.60
2006,03,12,08,05,2.70
2006,03,12,08,06,2.70
2006,03,12,08,07,2.80
2006,03,12,08,08,2.80
2006,03,12,08,09,2.80
2006,03,12,08,10,2.90
2006,03,12,08,11,2.90
2006,03,12,08,12,3.00
2006,03,12,08,13,3.10
2006,03,12,08,14,3.10
2006,03,12,08,15,3.10
2006,03,12,08,16,3.10
2006,03,12,08,17,3.10
2006,03,12,08,18,3.10
2006,03,12,08,19,3.10
2006,03,12,08,20,3.10
2006,03,12,08,21,3.30
2006,03,12,08,22,3.30
2006,03,12,08,23,3.30
2006,03,12,08,24,3.40
2006,03,12,08,25,3.40
2006,03,12,08,26,3.50
2006,03,12,08,27,3.50
2006,03,12,08,28,3.50
2006,03,12,08,29,3.60
2006,03,12,08,30,3.60
2006,03,12,08,31,3.70
2006,03,12,08,32,3.80
2006,03,12,08,33,3.80
2006,03,12,08,34,3.80
2006,03,12,08,35,4.00
2006,03,12,08,36,4.00
2006,03,12,08,37,4.10
2006,03,12,08,38,4.20
2006,03,12,08,39,4.20
2006,03,12,08,40,4.30
2006,03,12,08,41,4.40
2006,03,12,08,42,4.40
2006,03,12,08,43,4.40
2006,03,12,08,44,4.50
2006,03,12,08,45,4.50
2006,03,12,08,46,4.50
2006,03,12,08,47,4.50
2006,03,12,08,48,4.60
2006,03,12,08,49,4.60
2006,03,12,08,50,4.60
2006,03,12,08,51,4.70
2006,03,12,08,52,4.70
2006,03,12,08,53,4.70
2006,03,12,08,54,4.80
2006,03,12,08,55,4.80
2006,03,12,08,56,4.80
2006,03,12,08,57,4.80
2006,03,12,08,58,4.90
2006,03,12,08,59,4.90
2006,03,12,09,00,4.90
2006,03,12,09,01,5.00
2006,03,12,09,02,5.10
2006,03,12,09,03,5.10
2006,03,12,09,04,5.20
2006,03,12,09,05,5.20
2006,03,12,09,06,5.20
2006,03,12,09,07,5.30
2006,03,12,09,08,5.30
2006,03,12,09,09,5.30
2006,03,12,09,10,5.30
2006,03,12,09,11,5.30
2006,03,12,09,12,5.30
2006,03,12,09,13,5.30
2006,03,12,09,14,5.30
2006,03,12,09,15,5.30
2006,03,12,09,16,5.30
2006,03,12,09,17,5.30
2006,03,12,09,18,5.30
2006,03,12,09,19,5.30
2006,03,12,09,20,5.30
2006,03,12,09,21,5.30
2006,03,12,09,22,5.30
2006,03,12,09,23,5.30
2006,03,12,09,24,5.30
2006,03,12,09,25,5.30
2006,03,12,09,26,5.30
2006,03,12,09,27,5.30
2006,03,12,09,28,5.30
2006,03,12,09,29,5.30
2006,03,12,09,30,5.30
2006,03,12,09,31,5.40
2006,03,12,09,32,5.40
2006,03,12,09,33,5.50
2006,03,12,09,34,5.50
2006,03,12,09,35,5.60
2006,03,12,09,36,5.80
2006,03,12,09,37,6.00
2006,03,12,09,38,6.10
2006,03,12,09,39,6.20
2006,03,12,09,40,6.10
2006,03,12,09,41,6.10
2006,03,12,09,42,6.00
2006,03,12,09,43,6.00
2006,03,12,09,44,6.00
2006,03,12,09,45,6.00
2006,03,12,09,46,6.10
2006,03,12,09,47,6.20
2006,03,12,09,48,6.20
2006,03,12,09,49,6.20
2006,03,12,09,50,6.20
2006,03,12,09,51,6.30
2006,03,12,09,52,6.20
2006,03,12,09,53,6.20
2006,03,12,09,54,6.20
2006,03,12,09,55,6.10
2006,03,12,09,56,6.00
2006,03,12,09,57,6.20
2006,03,12,09,58,6.30
2006,03,12,09,59,6.30
2006,03,12,10,00,6.40
2006,03,12,10,01,6.40
2006,03,12,10,02,6.40
2006,03,12,10,03,6.40
2006,03,12,10,04,6.50
2006,03,12,10,05,6.60
2006,03,12,10,06,6.70
2006,03,12,10,07,6.80
2006,03,12,10,08,6.80
2006,03,12,10,09,6.80
2006,03,12,10,10,6.70
2006,03,12,10,11,6.70
2006,03,12,10,12,6.70
2006,03,12,10,13,6.70
2006,03,12,10,14,6.70
2006,03,12,10,15,6.70
2006,03,12,10,16,6.70
2006,03,12,10,17,6.60
2006,03,12,10,18,6.60
2006,03,12,10,19,6.70
2006,03,12,10,20,6.80
2006,03,12,10,21,6.80
2006,03,12,10,22,7.00
2006,03,12,10,23,7.10
2006,03,12,10,24,7.20
2006,03,12,10,25,7.30
2006,03,12,10,26,7.30
2006,03,12,10,27,7.30
2006,03,12,10,28,7.30
2006,03,12,10,29,7.40
2006,03,12,10,30,7.40
2006,03,12,10,31,7.50
2006,03,12,10,32,7.50
2006,03,12,10,33,7.50
2006,03,12,10,34,7.60
2006,03,12,10,35,7.60
2006,03,12,10,36,7.50
2006,03,12,10,37,7.50
2006,03,12,10,38,7.50
2006,03,12,10,39,7.50
2006,03,12,10,40,7.50
2006,03,12,10,41,7.50
2006,03,12,10,42,7.50
2006,03,12,10,43,7.50
2006,03,12,10,44,7.50
2006,03,12,10,45,7.50
2006,03,12,10,46,7.50
2006,03,12,10,47,7.60
2006,03,12,10,48,7.70
2006,03,12,10,49,7.80
2006,03,12,10,50,7.90
2006,03,12,10,51,8.00
2006,03,12,10,52,8.00
2006,03,12,10,53,8.00
2006,03,12,10,54,8.00
2006,03,12,10,55,8.10
2006,03,12,10,56,8.00
2006,03,12,10,57,8.00
2006,03,12,10,58,8.00
2006,03,12,10,59,8.00
2006,03,12,11,00,8.00
2006,03,12,11,01,7.80
2006,03,12,11,02,7.80
2006,03,12,11,03,7.90
2006,03,12,11,04,8.00
2006,03,12,11,05,7.90
2006,03,12,11,06,7.70
2006,03,12,11,07,7.50
2006,03,12,11,08,7.30
2006,03,12,11,09,7.30
2006,03,12,11,10,7.20
2006,03,12,11,11,7.30
2006,03,12,11,12,7.30
2006,03,12,11,13,7.30
2006,03,12,11,14,7.20
2006,03,12,11,15,7.10
2006,03,12,11,16,6.90
2006,03,12,11,17,6.80
2006,03,12,11,18,6.90
2006,03,12,11,19,6.90
2006,03,12,11,20,6.90
2006,03,12,11,21,6.90
2006,03,12,11,22,6.80
2006,03,12,11,23,6.80
2006,03,12,11,24,6.80
2006,03,12,11,25,6.80
2006,03,12,11,26,7.00
2006,03,12,11,27,7.20
2006,03,12,11,28,7.40
2006,03,12,11,29,7.50
2006,03,12,11,30,7.70
2006,03,12,11,31,7.80
2006,03,12,11,32,7.80
2006,03,12,11,33,7.90
2006,03,12,11,34,7.90
2006,03,12,11,35,7.90
2006,03,12,11,36,7.80
2006,03,12,11,37,7.80
2006,03,12,11,38,7.70
2006,03,12,11,39,7.50
2006,03,12,11,40,7.30
2006,03,12,11,41,7.10
2006,03,12,11,42,7.00
2006,03,12,11,43,6.90
2006,03,12,11,44,7.00
2006,03,12,11,45,7.00
2006,03,12,11,46,7.00
2006,03,12,11,47,7.00
2006,03,12,11,48,7.00
2006,03,12,11,49,7.00
2006,03,12,11,50,7.00
2006,03,12,11,51,7.00
2006,03,12,11,52,7.00
2006,03,12,11,53,7.10
2006,03,12,11,54,7.60
2006,03,12,11,55,7.70
2006,03,12,11,56,7.80
2006,03,12,11,57,8.00
2006,03,12,11,58,8.10
2006,03,12,11,59,8.10
2006,03,12,12,00,8.10
2006,03,12,12,01,8.30
2006,03,12,12,02,8.40
2006,03,12,12,03,8.40
2006,03,12,12,04,8.50
2006,03,12,12,05,8.50
2006,03,12,12,06,8.70
2006,03,12,12,07,8.70
2006,03,12,12,08,8.70
2006,03,12,12,09,8.60
2006,03,12,12,10,8.60
2006,03,12,12,11,8.70
2006,03,12,12,12,8.70
2006,03,12,12,13,8.70
2006,03,12,12,14,8.70
2006,03,12,12,15,8.70
2006,03,12,12,16,8.50
2006,03,12,12,17,8.10
2006,03,12,12,18,7.90
2006,03,12,12,19,7.90
2006,03,12,12,20,7.90
2006,03,12,12,21,8.00
2006,03,12,12,22,8.10
2006,03,12,12,23,8.20
2006,03,12,12,24,8.30
2006,03,12,12,25,8.40
2006,03,12,12,26,8.50
2006,03,12,12,27,8.50
2006,03,12,12,28,8.40
2006,03,12,12,29,8.50
2006,03,12,12,30,8.50
2006,03,12,12,31,8.50
2006,03,12,12,32,8.50
2006,03,12,12,33,8.60
2006,03,12,12,34,8.50
2006,03,12,12,35,8.40
2006,03,12,12,36,8.40
2006,03,12,12,37,8.50
2006,03,12,12,38,8.50
2006,03,12,12,39,8.50
2006,03,12,12,40,8.50
2006,03,12,12,41,8.50
2006,03,12,12,42,8.50
2006,03,12,12,43,8.50
2006,03,12,12,44,8.50
2006,03,12,12,45,8.80
2006,03,12,12,46,9.10
2006,03,12,12,47,9.20
2006,03,12,12,48,9.30
2006,03,12,12,49,9.30
2006,03,12,12,50,9.30
2006,03,12,12,51,9.40
2006,03,12,12,52,9.50
2006,03,12,12,53,9.50
2006,03,12,12,54,9.50
2006,03,12,12,55,9.70
2006,03,12,12,56,9.60
2006,03,12,12,57,9.40
2006,03,12,12,58,9.30
2006,03,12,12,59,9.20
2006,03,12,13,00,9.20
2006,03,12,13,01,9.20
2006,03,12,13,02,9.40
2006,03,12,13,03,9.40
2006,03,12,13,04,9.40
2006,03,12,13,05,9.40
2006,03,12,13,06,9.50
2006,03,12,13,07,9.50
2006,03,12,13,08,9.50
2006,03,12,13,09,9.50
2006,03,12,13,10,9.60
2006,03,12,13,11,9.70
2006,03,12,13,12,9.70
2006,03,12,13,13,9.70
2006,03,12,13,14,9.70
2006,03,12,13,15,9.70
2006,03,12,13,16,9.90
2006,03,12,13,17,9.90
2006,03,12,13,18,10.00
2006,03,12,13,19,10.10
2006,03,12,13,20,10.20
2006,03,12,13,21,10.30
2006,03,12,13,22,10.30
2006,03,12,13,23,10.20
2006,03,12,13,24,10.10
2006,03,12,13,25,10.10
2006,03,12,13,26,10.10
2006,03,12,13,27,10.10
2006,03,12,13,28,10.00
2006,03,12,13,29,9.90
2006,03,12,13,30,9.90
2006,03,12,13,31,10.00
2006,03,12,13,32,10.10
2006,03,12,13,33,10.10
2006,03,12,13,34,10.10
2006,03,12,13,35,10.10
2006,03,12,13,36,10.10
2006,03,12,13,37,10.20
2006,03,12,13,38,10.30
2006,03,12,13,39,10.30
2006,03,12,13,40,10.40
2006,03,12,13,41,10.50
2006,03,12,13,42,10.60
2006,03,12,13,43,10.60
2006,03,12,13,44,10.60
2006,03,12,13,45,10.60
2006,03,12,13,46,10.60
2006,03,12,13,47,10.60
2006,03,12,13,48,10.60
2006,03,12,13,49,10.50
2006,03,12,13,50,10.40
2006,03,12,13,51,10.40
2006,03,12,13,52,10.40
2006,03,12,13,53,10.40
2006,03,12,13,54,10.30
2006,03,12,13,55,10.30
2006,03,12,13,56,10.30
2006,03,12,13,57,10.20
2006,03,12,13,58,10.10
2006,03,12,13,59,10.10
2006,03,12,14,00,10.20
2006,03,12,14,01,10.20
2006,03,12,14,02,10.20
2006,03,12,14,03,10.30
2006,03,12,14,04,10.40
2006,03,12,14,05,10.40
2006,03,12,14,06,10.40
2006,03,12,14,07,10.40
2006,03,12,14,08,10.40
2006,03,12,14,09,10.40
2006,03,12,14,10,10.40
2006,03,12,14,11,10.40
2006,03,12,14,12,10.50
2006,03,12,14,13,10.60
2006,03,12,14,14,10.60
2006,03,12,14,15,10.60
2006,03,12,14,16,10.60
2006,03,12,14,17,10.60
2006,03,12,14,18,10.60
2006,03,12,14,19,10.60
2006,03,12,14,20,10.50
2006,03,12,14,21,10.30
2006,03,12,14,22,10.20
2006,03,12,14,23,10.10
2006,03,12,14,24,10.10
2006,03,12,14,25,10.20
2006,03,12,14,26,10.20
2006,03,12,14,27,10.30
2006,03,12,14,28,10.30
2006,03,12,14,29,10.40
2006,03,12,14,30,10.40
2006,03,12,14,31,10.40
2006,03,12,14,32,10.40
2006,03,12,14,33,10.20
2006,03,12,14,34,10.00
2006,03,12,14,35,9.90
2006,03,12,14,36,9.90
2006,03,12,14,37,9.90
2006,03,12,14,38,9.90
2006,03,12,14,39,9.90
2006,03,12,14,40,9.90
2006,03,12,14,41,9.90
2006,03,12,14,42,9.90
2006,03,12,14,43,9.90
2006,03,12,14,44,9.90
2006,03,12,14,45,9.80
2006,03,12,14,46,9.80
2006,03,12,14,47,9.60
2006,03,12,14,48,9.40
2006,03,12,14,49,8.90
2006,03,12,14,50,8.50
2006,03,12,14,51,8.30
2006,03,12,14,52,8.10
2006,03,12,14,53,8.00
2006,03,12,14,54,8.00
2006,03,12,14,55,8.00
2006,03,12,14,56,8.00
2006,03,12,14,57,7.90
2006,03,12,14,58,7.90
2006,03,12,14,59,7.90
2006,03,12,15,00,8.00
2006,03,12,15,01,7.90
2006,03,12,15,02,7.80
2006,03,12,15,03,7.70
2006,03,12,15,04,7.60
2006,03,12,15,05,7.60
2006,03,12,15,06,7.60
2006,03,12,15,07,7.60
2006,03,12,15,08,7.60
2006,03,12,15,09,7.60
2006,03,12,15,10,7.50
2006,03,12,15,11,7.50
2006,03,12,15,12,7.60
2006,03,12,15,13,7.80
2006,03,12,15,14,7.70
2006,03,12,15,15,7.70
2006,03,12,15,16,7.80
2006,03,12,15,17,7.80
2006,03,12,15,18,7.80
2006,03,12,15,19,7.80
2006,03,12,15,20,7.70
2006,03,12,15,21,7.70
2006,03,12,15,22,7.70
2006,03,12,15,23,7.80
2006,03,12,15,24,7.80
2006,03,12,15,25,7.90
2006,03,12,15,26,8.00
2006,03,12,15,27,8.10
2006,03,12,15,28,8.20
2006,03,12,15,29,8.20
2006,03,12,15,30,8.20
2006,03,12,15,31,8.20
2006,03,12,15,32,8.30
2006,03,12,15,33,8.50
2006,03,12,15,34,8.60
2006,03,12,15,35,8.60
2006,03,12,15,36,8.60
2006,03,12,15,37,8.50
2006,03,12,15,38,8.40
2006,03,12,15,39,8.30
2006,03,12,15,40,8.30
2006,03,12,15,41,8.30
2006,03,12,15,42,8.40
2006,03,12,15,43,8.40
2006,03,12,15,44,8.40
2006,03,12,15,45,8.50
2006,03,12,15,46,8.50
2006,03,12,15,47,8.40
2006,03,12,15,48,8.30
2006,03,12,15,49,8.20
2006,03,12,15,50,8.30
2006,03,12,15,51,8.40
2006,03,12,15,52,8.50
2006,03,12,15,53,8.40
2006,03,12,15,54,8.40
2006,03,12,15,55,8.50
2006,03,12,15,56,8.60
2006,03,12,15,57,8.70
2006,03,12,15,58,8.70
2006,03,12,15,59,8.70
2006,03,12,16,00,8.70
2006,03,12,16,01,8.70
2006,03,12,16,02,8.70
2006,03,12,16,03,8.40
2006,03,12,16,04,8.20
2006,03,12,16,05,8.30
2006,03,12,16,06,8.30
2006,03,12,16,07,8.30
2006,03,12,16,08,8.30
2006,03,12,16,09,8.30
2006,03,12,16,10,8.20
2006,03,12,16,11,8.20
2006,03,12,16,12,8.20
2006,03,12,16,13,8.20
2006,03,12,16,14,8.20
2006,03,12,16,15,8.20
2006,03,12,16,16,8.20
2006,03,12,16,17,8.20
2006,03,12,16,18,8.20
2006,03,12,16,19,8.20
2006,03,12,16,20,8.20
2006,03,12,16,21,8.20
2006,03,12,16,22,8.20
2006,03,12,16,23,8.20
2006,03,12,16,24,8.20
2006,03,12,16,25,8.00
2006,03,12,16,26,7.90
2006,03,12,16,27,7.90
2006,03,12,16,28,7.90
2006,03,12,16,29,7.70
2006,03,12,16,30,7.50
2006,03,12,16,31,7.50
2006,03,12,16,32,7.50
2006,03,12,16,33,7.50
2006,03,12,16,34,7.50
2006,03,12,16,35,7.50
2006,03,12,16,36,7.50
2006,03,12,16,37,7.40
2006,03,12,16,38,7.30
2006,03,12,16,39,7.30
2006,03,12,16,40,7.20
2006,03,12,16,41,7.20
2006,03,12,16,42,7.20
2006,03,12,16,43,7.20
2006,03,12,16,44,7.20
2006,03,12,16,45,7.30
2006,03,12,16,46,7.30
2006,03,12,16,47,7.30
2006,03,12,16,48,7.30
2006,03,12,16,49,7.30
2006,03,12,16,50,7.30
2006,03,12,16,51,7.30
2006,03,12,16,52,7.30
2006,03,12,16,53,7.20
2006,03,12,16,54,7.10
2006,03,12,16,55,7.10
2006,03,12,16,56,7.10
2006,03,12,16,57,7.00
2006,03,12,16,58,7.10
2006,03,12,16,59,7.10
2006,03,12,17,00,7.10
2006,03,12,17,01,7.20
2006,03,12,17,02,7.20
2006,03,12,17,03,7.30
2006,03,12,17,04,7.30
2006,03,12,17,05,7.30
2006,03,12,17,06,7.30
2006,03,12,17,07,7.30
2006,03,12,17,08,7.30
2006,03,12,17,09,7.30
2006,03,12,17,10,7.30
2006,03,12,17,11,7.30
2006,03,12,17,12,7.20
2006,03,12,17,13,7.20
2006,03,12,17,14,7.10
2006,03,12,17,15,7.10
2006,03,12,17,16,7.00
2006,03,12,17,17,6.90
2006,03,12,17,18,6.90
2006,03,12,17,19,6.80
2006,03,12,17,20,6.80
2006,03,12,17,21,6.80
2006,03,12,17,22,6.80
2006,03,12,17,23,6.80
2006,03,12,17,24,6.80
2006,03,12,17,25,6.80
2006,03,12,17,26,6.80
2006,03,12,17,27,6.80
2006,03,12,17,28,6.80
2006,03,12,17,29,6.80
2006,03,12,17,30,6.80
2006,03,12,17,31,6.80
2006,03,12,17,32,6.80
2006,03,12,17,33,6.90
2006,03,12,17,34,6.90
2006,03,12,17,35,6.90
2006,03,12,17,36,6.90
2006,03,12,17,37,6.90
2006,03,12,17,38,6.90
2006,03,12,17,39,6.90
2006,03,12,17,40,6.90
2006,03,12,17,41,6.90
2006,03,12,17,42,6.80
2006,03,12,17,43,6.80
2006,03,12,17,44,6.80
2006,03,12,17,45,6.80
2006,03,12,17,46,6.80
2006,03,12,17,47,6.90
2006,03,12,17,48,6.90
2006,03,12,17,49,6.90
2006,03,12,17,50,6.90
2006,03,12,17,51,6.90
2006,03,12,17,52,6.90
2006,03,12,17,53,6.90
2006,03,12,17,54,6.90
2006,03,12,17,55,6.90
2006,03,12,17,56,6.90
2006,03,12,17,57,6.80
2006,03,12,17,58,6.80
2006,03,12,17,59,6.80
2006,03,12,18,00,6.80
2006,03,12,18,01,6.80
2006,03,12,18,02,6.80
2006,03,12,18,03,6.80